TimeCDT,TemperatureF,Dew PointF,Humidity,Sea Level PressureIn,VisibilityMPH,Wind Direction,Wind SpeedMPH,Gust SpeedMPH,PrecipitationIn,Events,Conditions,WindDirDegrees,DateUTC
12:15 AM,55.4,32.0,41,29.80,10.0,SSW,13.8,21.9,N/A,,Overcast,210,2012-10-09 05:15:00
12:35 AM,55.4,33.8,44,29.81,10.0,SSW,12.7,19.6,N/A,,Overcast,210,2012-10-09 05:35:00
12:55 AM,55.4,33.8,44,29.80,10.0,SW,12.7,21.9,N/A,,Overcast,220,2012-10-09 05:55:00
1:15 AM,53.6,33.8,47,29.81,10.0,SW,8.1,17.3,N/A,,Overcast,220,2012-10-09 06:15:00
1:35 AM,53.6,33.8,47,29.81,10.0,SW,8.1,16.1,N/A,,Overcast,230,2012-10-09 06:35:00
1:55 AM,53.6,33.8,47,29.81,10.0,Variable,4.6,11.5,N/A,,Overcast,0,2012-10-09 06:55:00
2:55 AM,51.8,33.8,50,29.80,10.0,SW,6.9,-,N/A,,Mostly Cloudy,220,2012-10-09 07:55:00
3:15 AM,50.0,33.8,54,29.80,10.0,South,4.6,-,N/A,,Overcast,190,2012-10-09 08:15:00
3:35 AM,50.0,33.8,54,29.78,10.0,South,9.2,-,N/A,,Overcast,190,2012-10-09 08:35:00
3:55 AM,50.0,33.8,54,29.78,10.0,Variable,6.9,-,N/A,,Overcast,0,2012-10-09 08:55:00
4:15 AM,50.0,33.8,54,29.78,10.0,Variable,6.9,-,N/A,,Overcast,0,2012-10-09 09:15:00
4:35 AM,50.0,33.8,54,29.77,10.0,South,9.2,-,N/A,,Overcast,190,2012-10-09 09:35:00
4:55 AM,50.0,33.8,54,29.78,10.0,Variable,6.9,12.7,N/A,,Overcast,0,2012-10-09 09:55:00
5:15 AM,50.0,35.6,58,29.78,10.0,SSW,8.1,-,N/A,,Overcast,200,2012-10-09 10:15:00
5:35 AM,50.0,35.6,58,29.77,10.0,Variable,5.8,12.7,N/A,,Overcast,0,2012-10-09 10:35:00
5:55 AM,50.0,35.6,58,29.77,10.0,SSW,4.6,-,N/A,,Overcast,200,2012-10-09 10:55:00
6:15 AM,50.0,35.6,58,29.78,10.0,Variable,4.6,11.5,N/A,,Overcast,0,2012-10-09 11:15:00
6:35 AM,50.0,35.6,58,29.78,10.0,SSW,6.9,-,N/A,,Overcast,210,2012-10-09 11:35:00
6:55 AM,50.0,35.6,58,29.79,10.0,Variable,5.8,-,N/A,,Overcast,0,2012-10-09 11:55:00
7:15 AM,-9999,-9999,N/A,-9999,10.0,North,-9999.0,-,N/A,,Overcast,0,2012-10-09 12:15:00
7:35 AM,48.2,35.6,62,29.79,10.0,Variable,6.9,15.0,N/A,,Overcast,0,2012-10-09 12:35:00
7:55 AM,48.2,37.4,66,29.79,9.0,SW,6.9,-,N/A,Rain,Light Rain,220,2012-10-09 12:55:00
8:15 AM,48.2,37.4,66,29.79,10.0,SW,5.8,-,N/A,,Overcast,220,2012-10-09 13:15:00
8:35 AM,48.2,37.4,66,29.78,10.0,SW,6.9,-,N/A,,Overcast,220,2012-10-09 13:35:00
8:55 AM,50.0,35.6,58,29.79,10.0,SW,9.2,-,N/A,,Mostly Cloudy,220,2012-10-09 13:55:00
9:15 AM,50.0,37.4,62,29.79,10.0,Variable,4.6,-,N/A,,Overcast,0,2012-10-09 14:15:00
9:35 AM,50.0,37.4,62,29.79,10.0,Variable,6.9,-,N/A,,Overcast,0,2012-10-09 14:35:00
9:55 AM,48.2,41.0,76,29.79,7.0,SW,4.6,-,N/A,,Light Drizzle,220,2012-10-09 14:55:00
10:15 AM,48.2,42.8,82,29.79,5.0,Variable,4.6,-,N/A,Rain,Light Rain,0,2012-10-09 15:15:00
10:35 AM,48.2,42.8,82,29.80,9.0,Variable,4.6,-,N/A,,Light Drizzle,0,2012-10-09 15:35:00
10:55 AM,48.2,44.6,87,29.81,8.0,SW,5.8,-,0.01,Rain,Light Rain,220,2012-10-09 15:55:00
11:15 AM,50.0,46.4,87,29.80,5.0,SW,6.9,-,N/A,Rain,Light Rain,230,2012-10-09 16:15:00
11:35 AM,50.0,46.4,87,29.81,7.0,Variable,5.8,-,N/A,Rain,Light Rain,0,2012-10-09 16:35:00
11:55 AM,50.0,46.4,87,29.81,3.0,WSW,8.1,13.8,0.02,Rain,Light Rain,250,2012-10-09 16:55:00
12:15 PM,48.2,44.6,87,29.82,3.0,NW,15.0,20.7,N/A,Rain,Rain,310,2012-10-09 17:15:00
12:35 PM,46.4,44.6,93,29.83,5.0,NW,13.8,23.0,N/A,Rain,Light Rain,310,2012-10-09 17:35:00
12:55 PM,44.6,41.0,87,29.84,4.0,WNW,10.4,18.4,0.06,Rain,Light Rain,300,2012-10-09 17:55:00
1:15 PM,44.6,41.0,87,29.84,6.0,Variable,6.9,13.8,N/A,Rain,Light Rain,0,2012-10-09 18:15:00
1:35 PM,44.6,42.8,93,29.84,6.0,Variable,4.6,11.5,N/A,Rain,Light Rain,0,2012-10-09 18:35:00
1:55 PM,44.6,41.0,87,29.84,5.0,Variable,5.8,11.5,0.05,Rain,Light Rain,0,2012-10-09 18:55:00
2:15 PM,42.8,41.0,93,29.84,5.0,West,8.1,17.3,N/A,Rain,Light Rain,270,2012-10-09 19:15:00
2:35 PM,42.8,41.0,93,29.83,7.0,Variable,5.8,-,N/A,Rain,Light Rain,0,2012-10-09 19:35:00
2:55 PM,44.6,41.0,87,29.84,10.0,Variable,5.8,-,0.04,,Clear,0,2012-10-09 19:55:00
3:15 PM,44.6,42.8,93,29.84,10.0,WSW,3.5,-,N/A,,Clear,240,2012-10-09 20:15:00
3:35 PM,44.6,42.8,93,29.84,10.0,Calm,Calm,-,N/A,,Partly Cloudy,0,2012-10-09 20:35:00
3:55 PM,44.6,42.8,93,29.84,10.0,Variable,4.6,-,N/A,,Mostly Cloudy,0,2012-10-09 20:55:00
4:15 PM,44.6,42.8,93,29.85,10.0,Variable,3.5,-,N/A,,Overcast,0,2012-10-09 21:15:00
4:35 PM,44.6,41.0,87,29.85,10.0,West,9.2,-,N/A,,Overcast,280,2012-10-09 21:35:00
4:55 PM,46.4,39.2,76,29.85,10.0,West,6.9,-,0.01,,Scattered Clouds,270,2012-10-09 21:55:00
5:15 PM,46.4,35.6,66,29.85,10.0,Variable,6.9,12.7,N/A,,Mostly Cloudy,0,2012-10-09 22:15:00
5:35 PM,46.4,35.6,66,29.85,10.0,Variable,6.9,-,N/A,,Overcast,0,2012-10-09 22:35:00
5:55 PM,44.6,37.4,76,29.86,10.0,Variable,5.8,12.7,N/A,,Overcast,0,2012-10-09 22:55:00
6:15 PM,44.6,35.6,71,29.86,10.0,WNW,10.4,16.1,N/A,,Mostly Cloudy,300,2012-10-09 23:15:00
6:35 PM,44.6,32.0,61,29.87,10.0,WNW,9.2,18.4,N/A,,Mostly Cloudy,300,2012-10-09 23:35:00
6:55 PM,44.6,30.2,57,29.87,10.0,Variable,6.9,15.0,N/A,,Scattered Clouds,0,2012-10-09 23:55:00
7:15 PM,44.6,32.0,61,29.88,10.0,West,8.1,-,N/A,,Mostly Cloudy,280,2012-10-10 00:15:00
7:35 PM,42.8,32.0,66,29.89,10.0,Variable,6.9,-,N/A,,Overcast,0,2012-10-10 00:35:00
7:55 PM,42.8,32.0,66,29.89,10.0,West,6.9,-,N/A,,Overcast,280,2012-10-10 00:55:00
8:15 PM,42.8,32.0,66,29.90,10.0,Variable,5.8,-,N/A,,Overcast,0,2012-10-10 01:15:00
8:35 PM,41.0,32.0,70,29.91,10.0,Variable,6.9,16.1,N/A,,Mostly Cloudy,0,2012-10-10 01:35:00
8:55 PM,41.0,32.0,70,29.91,10.0,NW,8.1,-,N/A,,Partly Cloudy,310,2012-10-10 01:55:00
9:15 PM,41.0,30.2,65,29.92,10.0,WNW,10.4,18.4,N/A,,Partly Cloudy,300,2012-10-10 02:15:00
9:35 PM,41.0,30.2,65,29.93,10.0,NW,11.5,18.4,N/A,,Scattered Clouds,310,2012-10-10 02:35:00
9:55 PM,41.0,30.2,65,29.93,10.0,NW,10.4,23.0,N/A,,Mostly Cloudy,310,2012-10-10 02:55:00
10:15 PM,41.0,30.2,65,29.94,10.0,NW,13.8,20.7,N/A,,Mostly Cloudy,310,2012-10-10 03:15:00
10:35 PM,41.0,28.4,61,29.95,10.0,NW,12.7,21.9,N/A,,Scattered Clouds,310,2012-10-10 03:35:00
10:55 PM,39.2,28.4,65,29.95,10.0,NW,11.5,18.4,N/A,,Mostly Cloudy,310,2012-10-10 03:55:00
11:15 PM,39.2,28.4,65,29.95,10.0,NW,10.4,17.3,N/A,,Overcast,310,2012-10-10 04:15:00
11:35 PM,39.2,28.4,65,29.96,10.0,WNW,6.9,15.0,N/A,,Overcast,290,2012-10-10 04:35:00
11:55 PM,39.2,26.6,61,29.96,10.0,WNW,9.2,16.1,N/A,,Overcast,290,2012-10-10 04:55:00